HADES-D (SO-121) (58567 NORAD) Tracking and Keplerian Element Data

This shows tracking and keplerian element data for the satellite.

Feedback or suggestion? Click here.




ElementValue
Catalog58567
NameHADES-D (SO-121)
Epoch Orbit5190
Epoch Day286.84941576
Epoch Year2024
RAAN4.8312
Inclination97.434
Eccentricity0.0007157
Argument of Perigee210.5421
Mean Anonmoly149.5422
Mean Motion15.64684528
Decay Rate0.00402045
L11 58567U 23174CY 24286.84941576 .00402045 00000+0 39588-2 0 9993
L22 58567 97.4340 4.8312 0007157 210.5421 149.5422 15.64684528 51904



Live tracking and technical data element details for HADES-D (SO-121) (NORAD 58567). HADES-D (SO-121) can be tracked NOW for your location showing map with azimuth and elevation plus other details from your city location.







IsCatalogInMostPopularTable: catalog: 58567, numindb: 36
Update: records affected: 1



GetName: 58567 HADES-D (SO-121)

Hit Count: updated at: Thu, 23 Jan 2025 18:04:50 GMT